Regional Weather Roundup
Issued by NWS

Home | Current Version | Previous Version | Graphics & Text | Print | Product List | Glossary On
Versions: 1 2 3 4 5 6 7 8 9 10 11 12 13 14 15 16 17 18 19 20 21 22 23 24 25 26 27 28 29 30 31 32 33 34 35 36 37 38 39 40 41 42 43 44 45 46 47 48 49 50
000
ASUS43 KBIS 211810
RWRND

NORTH DAKOTA REGIONAL WEATHER ROUNDUP
NATIONAL WEATHER SERVICE BISMARCK ND
100 PM CDT SAT APR 21 2018

NOTE: "FAIR" INDICATES FEW OR NO CLOUDS BELOW 12,000 FEET WITH NO
SIGNIFICANT WEATHER AND/OR OBSTRUCTIONS TO VISIBILITY.


NDZ001>003-009>011-017-211900-
NORTHWEST NORTH DAKOTA

CITY           SKY/WX    TMP DP  RH WIND       PRES   REMARKS
WILLISTON      SUNNY     62  39  42 S16G24    30.06F
6HR MIN TEMP:  38; 6HR MAX TEMP:  62;

MINOT          SUNNY     58  40  51 S20G30    30.14F
MINOT AFB      SUNNY     57  42  57 S25G32    30.13F
$$

NDZ018>021-031>035-040>046-211900-
SOUTHWEST NORTH DAKOTA

CITY           SKY/WX    TMP DP  RH WIND       PRES   REMARKS
BISMARCK       SUNNY     61  35  37 S21G30    30.21F
6HR MIN TEMP:  36; 6HR MAX TEMP:  62;

DICKINSON      SUNNY     58  37  45 S24G32    30.11F
GARRISON         N/A     56  41  57 S21       30.15F
6HR MIN TEMP:  33; 6HR MAX TEMP:  56;

HETTINGER ARPT MOSUNNY   56  35  45 S23G30    30.17F
$$

NDZ004>008-012>016-024-026-027-054-211900-
NORTHEAST NORTH DAKOTA

CITY           SKY/WX    TMP DP  RH WIND       PRES   REMARKS
GRAND FORKS    FAIR      54  45  71 S14       30.30F
GRND FRKS AFB  FAIR      55  45  68 S13       30.29F
DEVILS LAKE    FAIR      56  40  55 S14       30.25F
$$

NDZ022-023-025-028>030-036>039-047>053-211900-
SOUTHEAST NORTH DAKOTA

CITY           SKY/WX    TMP DP  RH WIND       PRES   REMARKS
FARGO          FAIR      58  39  49 S12       30.32F
6HR MIN TEMP:  34; 6HR MAX TEMP:  58;

JAMESTOWN      MOSUNNY   59  40  49 S21       30.27F
$$





USA.gov is the U.S. government's official web portal to all federal, state and local government web resources and services.